Погода в Колобжеге

Польша     54°10′09″N   15°33′41″E
темп.,
°C
ветер,
м/с
пор.,
м/с
влажн.,
%
обл.,
%
осадки,
мм/ч
давл.,
гПа
погр.,
м
27 февраля, сб
сб2701:00+4зсз914900 0.0 1028342
04:00+4сз710906 0.0 1028206
07:00+4сз68853 0.0 1031151
10:00+4сз57840 0.0 1033203
13:00+4сз56820 0.0 1035154
16:00+4сз56790 0.0 1034129
19:00+4зсз56800 0.0 103596
22:00+4з689175 0.0 1034145
28 февраля, вс
вс2801:00+4зюз799388 0.0 1034164
04:00+4з811915 0.0 1032254
07:00+4з8119514 0.0 1032280
10:00+4зсз689490 0.0 1032290
13:00+4зсз689494 0.0 1033239
16:00+4зсз569484 0.0 1032168
19:00+4зсз459245 0.0 103466
22:00+4зсз23910 0.0 103422
1 марта, пн
пн101:00+4зюз44900 0.0 103535
04:00+4зюз55920 0.0 103483
07:00+4зюз56910 0.0 103499
10:00+4зюз689020 0.0 1034190
13:00+5з799010 0.0 1034225
16:00+5з688732 0.0 1033163
19:00+5з678516 0.0 103392
22:00+5з67860 0.0 103388
2 марта, вт
вт201:00+5з56880 0.0 103385
04:00+4зюз68890 0.0 1032119
07:00+4з67890 0.0 1032115
10:00+5з67870 0.0 1032140
13:00+5з56850 0.0 1032124
16:00+5з45820 0.0 103166
19:00+5з33820 0.0 103022
22:00+5з22820 0.0 103122
3 марта, ср
ср301:00+5юз12830 0.0 103022
04:00+5ю228342 0.0 102922
07:00+4ююз338521 0.0 102823
10:00+5юз34851 0.0 102862
13:00+6з44831 0.0 1026120
16:00+5з56850 0.0 102487
19:00+5зсз55900 0.0 102372
22:00+4з579026 0.0 102399